Location: Bahagian Bintulu
(2.8333°N, 113.2500°E)
Time: 13:33:24
(UTC+00:00)

Daily predictions for brighter satellites

Satellite Brightness Start Highest point End
(mag) Time Altitude Azimuth Time Altitude Azimuth Time Altitude Azimuth
NOSS 2-3 (C) 4.4 12:00:25 10° SW 12:04:55 47° WNW 12:08:35 10° N
Ariane H10+ 2.6 12:05:03 10° WNW 12:05:46 18° NW 12:05:46 18° NW
Cosmos 1892 2.3 12:07:16 75° S 12:07:32 87° E 12:11:03 10° N
OAO 3 Rocket 2.9 12:06:33 10° SW 12:11:10 77° SE 12:12:05 55° ENE
GPS 2-14 Rocket1 4.1 12:08:59 10° WSW 12:10:32 20° SW 12:10:32 20° SW
MOS 1-B Rocket 4.2 12:15:27 40° ENE 12:15:28 40° ENE 12:20:42 10° N
BlueWalker 3 3.8 12:17:05 10° N 12:18:42 20° NNE 12:18:42 20° NNE
H-2A R/B 2.3 12:13:58 10° WSW 12:20:58 70° NW 12:23:15 34° NE
ARIANE 5 DEB (SYLDA) 2.3 12:14:26 10° W 12:21:05 83° NW 12:21:05 83° NW
Cosmos 1825 3.1 12:25:40 40° NW 12:25:40 40° NW 12:28:15 10° N
CZ-4B R/B 3.6 12:27:23 45° NE 12:27:23 45° NE 12:31:51 10° N
SJ-6B 3.5 12:28:00 47° W 12:28:00 47° W 12:31:37 10° NNW
Centaur D-1AR AC-38 3.8 12:20:49 10° WNW 12:29:15 55° NNE 12:29:42 52° NE
Nadezhda 1 Rocket 4.1 12:25:04 10° N 12:31:05 72° W 12:34:23 29° S
SEDSat Delta rocket 4.0 12:27:47 10° WNW 12:34:23 68° SSW 12:35:26 59° SSE
Cosmos 1538 Rocket 4.0 12:35:18 10° NNW 12:40:14 77° NNW 12:40:14 77° NNW
SPOT 1/Viking Rocket 4.2 12:40:31 41° SW 12:41:48 50° WSW 12:46:46 10° NNW
Delta 198 4.2 12:37:52 10° WNW 12:41:20 55° WNW 12:41:20 55° WNW
Cosmos 1818 4.4 12:42:07 10° NW 12:47:13 43° WSW 12:47:53 41° SW
Cosmos 2074 Rocket 4.2 12:57:52 60° N 12:57:52 60° N 13:02:52 10° N
Resurs 01 Rocket 4.1 13:14:31 18° NW 13:14:31 18° NW 13:15:50 10° NNW
SL-16 R/B 4.1 13:19:53 10° NW 13:24:01 23° W 13:24:01 23° W
Ariane H10+ 4.4 19:20:27 23° E 19:20:27 23° E 19:24:47 10° E
Atlas Centaur 2 4.2 19:49:01 28° NNW 19:49:01 28° NNW 19:54:53 10° NNE
CENTAUR R/B 3.3 19:44:39 10° NNW 19:54:00 84° ENE 20:02:51 10° SSE
Cosmos 2279 Rocket 4.2 20:03:35 66° ENE 20:03:35 66° ENE 20:09:13 10° N
Ariane V96 H10-3 4.4 20:12:21 75° WSW 20:12:59 82° S 20:43:15 10° E
Cosmos 1092 Rocket 4.4 20:08:22 10° N 20:14:21 58° E 20:17:46 26° SSE
Cosmos 540 Rocket 4.0 20:16:22 55° NE 20:16:22 55° NE 20:20:27 10° NNE
NOSS 3-2 (A) 4.3 20:14:38 10° NNW 20:23:35 87° ENE 20:32:48 10° SSE
Cosmos 371 Rocket 4.4 20:27:43 10° N 20:32:17 42° ENE 20:36:49 10° SSE
Cosmos 2297 Rocket 2.2 20:27:57 10° N 20:33:35 77° ENE 20:39:14 10° SSE
ARGOS 4.3 20:29:49 10° NE 20:34:48 39° ESE 20:39:15 13° SSE
SL-16 R/B 2.3 20:33:36 51° S 20:35:01 73° ESE 20:40:39 10° NNE
Cosmos 468 Rocket 3.9 20:40:57 65° WNW 20:40:57 65° WNW 20:46:06 10° N
Uosat 12 SS-18 rocket 4.5 20:38:19 10° NNW 20:43:10 85° ENE 20:49:04 10° SSE
Palapa 6 Rocket 4.4 20:40:50 26° WNW 20:45:42 80° NNE 20:53:18 10° ESE
SWIFT 3.2 20:51:55 34° NNW 20:52:00 34° NNW 20:55:37 10° NE
Cosmos 2322 Rocket 2.5 20:51:30 20° S 20:55:20 64° ESE 21:00:53 10° NNE
CSL-04 DEB 4.3 20:54:32 10° N 20:58:33 66° WNW 20:59:04 59° WSW
Gbstr 26 Del rocket 4.4 20:55:36 10° NW 21:03:03 63° SW 21:10:58 10° SSE
H-2A R/B 2.9 21:01:01 10° NNW 21:04:49 28° WNW 21:04:49 28° WNW
ARIANE 5 R/B 3.7 21:00:36 21° W 21:08:23 85° S 21:12:33 10° E
CZ-4B R/B 4.4 21:04:11 10° S 21:08:34 72° WSW 21:12:51 10° NNW
HETE-2 4.3 21:10:55 45° WSW 21:11:58 72° S 21:15:53 10° E
Cosmos 1484 Rocket 4.3 21:14:09 10° NNW 21:15:51 18° NW 21:15:51 18° NW
Cosmos 1633 Rocket 3.2 21:15:07 27° SSW 21:17:12 48° W 21:21:24 10° NNW
Cosmos 1503 Rocket 4.1 21:12:10 10° N 21:17:19 79° ENE 21:22:33 10° SSE
ATLAS 2AS CENTAUR R/B 2.9 21:11:53 13° SSW 21:18:46 89° WNW 21:26:13 10° NNE
ARIANE 5 R/B 2.7 21:15:20 10° NNE 21:20:29 77° ESE 21:25:42 10° S
Meteor 1-23 Rocket 4.2 21:15:52 10° N 21:21:30 88° W 21:27:06 10° S
Cosmos 1470 3.1 21:19:55 10° S 21:23:32 61° E 21:27:09 10° NNE
Cosmos 2360 Rocket 2.1 21:18:42 10° SSW 21:24:21 85° WNW 21:30:00 10° NNE
Cosmos 2219 4.3 21:19:04 10° N 21:24:31 47° ENE 21:29:59 10° SSE
Cosmos 841 Rocket 3.7 21:23:04 18° SSW 21:26:47 49° WNW 21:31:48 10° N
deb Ariane 3.6 21:29:15 23° WSW 21:30:49 41° S 21:33:41 10° ESE
SJ-12 4.4 21:27:44 10° NNE 21:31:39 58° E 21:35:34 10° S
BREEZE-M TANK 4.2 21:30:29 15° WNW 21:32:11 20° NW 21:35:31 10° N
SL-24 R/B - RUBIN 2 4.5 21:28:37 17° SW 21:32:42 51° WNW 21:38:39 10° N
SL-4 R/B 3.9 21:34:08 12° WNW 21:35:03 13° NW 21:36:46 10° NNW
Cosmos 332 Rocket 4.0 21:32:09 10° N 21:36:53 74° ENE 21:41:38 10° SSE
ERS-1 4.4 21:32:41 10° N 21:37:37 79° WNW 21:42:33 10° SSW
Cosmos 304 Rocket 4.5 21:35:15 10° NW 21:39:25 30° WSW 21:43:35 10° SSW
Meteor 1-4 Rocket 2.5 21:37:08 10° NNW 21:39:46 35° W 21:42:23 10° SSW
Cosmos 2333 4.2 21:34:52 10° SSW 21:40:30 90° E 21:46:11 10° NNE
Cosmos 1356 Rocket 4.3 21:41:34 10° NW 21:44:47 25° W 21:48:03 10° SSW
SL-08 ROCKET BODY 4.4 21:40:15 10° N 21:46:14 90° WSW 21:52:21 10° S
Cosmos 2333 Rocket 2.4 21:40:53 10° SSW 21:46:22 54° WNW 21:51:54 10° N
SJ-11-01 4.3 21:45:45 10° N 21:50:20 60° WNW 21:54:57 10° SSW
Lacrosse 5 2.1 21:45:50 10° NNW 21:50:54 79° ENE 21:56:00 10° SSE
USA 267 3.3 21:44:56 10° NNE 21:51:24 70° NW 21:57:53 10° SW
GPS 2-14 Rocket1 4.4 21:56:14 10° S 21:57:38 13° SSE 21:59:01 10° SE
ATLAS 5 CENTAUR R/B 4.1 21:52:07 10° N 21:58:15 44° ENE 22:05:12 10° SE
PSLV R/B 4.3 21:54:24 10° NNE 21:58:28 53° ESE 22:02:31 10° S
Cosmos 2263 Rocket 2.5 21:53:07 10° N 21:58:44 75° ENE 22:04:24 10° SSE
Okean 3 3.3 21:56:29 10° N 22:00:33 83° W 22:04:38 10° S
USA 238 DEB 4.1 21:52:49 10° NNW 22:00:50 81° WSW 22:08:54 10° SSE
USA 238 4.1 21:52:55 10° NNW 22:00:54 82° WSW 22:08:57 10° SSE
Cosmos 2227 Rocket 3.0 21:56:48 10° NW 22:01:30 28° WSW 22:06:14 10° SSW
Cosmos 1242 Rocket 2.0 21:59:31 10° NNW 22:01:56 40° W 22:04:23 10° SSW
ARIANE 5 DEB (SYLDA) 4.2 22:00:22 10° SW 22:02:30 21° SSE 22:06:04 10° ESE
Cosmos 1814 Rocket 4.0 21:57:54 10° SSW 22:03:04 81° WNW 22:08:16 10° N
Fermi 3.6 21:59:12 10° WSW 22:03:09 88° NNW 22:07:06 10° ENE
ARIANE 5 DEB (SYLDA) 3.3 21:59:05 10° W 22:03:12 89° S 22:08:18 10° E
Cosmos 1908 3.5 22:00:41 10° SSW 22:04:00 38° W 22:07:20 10° NNW
ARIANE 5 R/B 4.1 15:32:24 10° W 23:07:44 66° S 23:13:02 10° ESE
ATLAS 2AS CENTAUR RB 4.1 22:58:32 10° WSW 23:42:56 80° S 23:48:16 10° E
